Wolf Creek Pass, CO

6:02 PM MDT on May 24, 2018 (GMT -0600)
Wolf Creek Pass

Weather History for KCPW - March, 2013

Change the Weather History Date:

Saturday, March 30, 2013

  Actual Average (KALS) Record (KALS)
Temperature  
Mean Temperature 32 °F -  
Max Temperature 37 °F 51 °F 71 °F (2015)
Min Temperature 26 °F 17 °F -2 °F (1937)
Degree Days  
Heating Degree Days 34    
Moisture  
Dew Point 16 °F    
Average Humidity 55    
Maximum Humidity 74    
Minimum Humidity 44    
Precipitation  
Precipitation 0.00 in - - ()
Sea Level Pressure  
Sea Level Pressure 30.35 in    
Wind  
Wind Speed 10 mph (West)    
Max Wind Speed 18 mph    
Max Gust Speed 32 mph    
Visibility 10 miles    
Events Snow    
Averages and records for this station are not official NWS values.
T = Trace of Precipitation, MM = Missing Value Source: NWS Daily Summary

Daily Weather History Graph

Daily Weather History Graph

Search for Another Location

Airport or City:

Astronomy

Mar. 30, 2013 Rise Set
Actual Time 6:55 AM MDT 7:28 PM MDT
Civil Twilight 6:28 AM MDT 7:54 PM MDT
Nautical Twilight 5:58 AM MDT 8:25 PM MDT
Astronomical Twilight 5:26 AM MDT 8:57 PM MDT
Moon 11:33 PM MDT (3/30) 8:57 AM MDT (3/30)
Length of Visible Light 13h 25m
Length of Day
12h 33m
Waning Gibbous, 86% of the Moon is Illuminated
Mar 30
Waning Gibbous
Apr 2
Last Quarter
Apr 10
New
Apr 18
First Quarter
Apr 25
Full

Hourly Weather History & Observations

Time (MDT) Temp. Windchill Dew Point Humidity Pressure Visibility Wind Dir Wind Speed Gust Speed Precip Events Conditions
12:16 AM 28.4 °F 17.5 °F 14.0 °F 55% 30.40 in 10.0 mi WSW 13.8 mph - N/A   Clear
12:36 AM 28.4 °F 19.1 °F 14.0 °F 55% 30.40 in 10.0 mi WSW 10.4 mph - N/A   Clear
12:56 AM 28.4 °F 19.7 °F 14.0 °F 55% 30.40 in 10.0 mi West 9.2 mph 16.1 mph N/A   Clear
1:16 AM 28.4 °F 19.7 °F 14.0 °F 55% 30.40 in 10.0 mi SW 9.2 mph - N/A   Clear
1:36 AM 28.4 °F 19.1 °F 14.0 °F 55% 30.40 in 10.0 mi WSW 10.4 mph - N/A   Clear
1:56 AM 28.4 °F 19.1 °F 15.8 °F 59% 30.39 in 10.0 mi SW 10.4 mph - N/A   Clear
2:16 AM 28.4 °F 17.5 °F 17.6 °F 64% 30.39 in 10.0 mi SW 13.8 mph - N/A   Clear
2:36 AM 26.6 °F 15.2 °F 19.4 °F 74% 30.39 in 10.0 mi SW 13.8 mph 17.3 mph N/A   Clear
2:56 AM 26.6 °F 15.2 °F 19.4 °F 74% 30.38 in 10.0 mi SW 13.8 mph - N/A   Clear
3:16 AM 26.6 °F 17.5 °F 15.8 °F 64% 30.38 in 10.0 mi WSW 9.2 mph - N/A   Clear
3:36 AM 26.6 °F 16.8 °F 12.2 °F 55% 30.38 in 10.0 mi WSW 10.4 mph - N/A   Clear
3:56 AM 26.6 °F 16.8 °F 14.0 °F 59% 30.37 in 10.0 mi WSW 10.4 mph - N/A   Clear
4:16 AM 26.6 °F 15.2 °F 12.2 °F 55% 30.37 in 10.0 mi WSW 13.8 mph - N/A   Clear
4:36 AM 26.6 °F 16.2 °F 12.2 °F 55% 30.37 in 10.0 mi WSW 11.5 mph - N/A   Clear
4:56 AM 26.6 °F 16.8 °F 12.2 °F 55% 30.37 in 10.0 mi WSW 10.4 mph - N/A   Clear
5:16 AM 26.6 °F 16.2 °F 12.2 °F 55% 30.37 in 10.0 mi WSW 11.5 mph - N/A   Clear
5:36 AM 26.6 °F 19.1 °F 12.2 °F 55% 30.36 in 10.0 mi West 6.9 mph - N/A   Clear
5:56 AM 26.6 °F 19.1 °F 12.2 °F 55% 30.36 in 10.0 mi West 6.9 mph - N/A   Clear
6:16 AM 26.6 °F 19.1 °F 14.0 °F 59% 30.36 in 10.0 mi West 6.9 mph - N/A   Clear
6:36 AM 26.6 °F 16.8 °F 14.0 °F 59% 30.36 in 10.0 mi West 10.4 mph - N/A   Clear
6:56 AM 26.6 °F 16.8 °F 14.0 °F 59% 30.37 in 10.0 mi West 10.4 mph - N/A   Clear
7:16 AM 26.6 °F 17.5 °F 14.0 °F 59% 30.37 in 10.0 mi WSW 9.2 mph - N/A   Clear
7:36 AM 26.6 °F 16.8 °F 14.0 °F 59% 30.38 in 10.0 mi WSW 10.4 mph - N/A   Clear
7:56 AM 28.4 °F 17.5 °F 14.0 °F 55% 30.38 in 10.0 mi West 13.8 mph 19.6 mph N/A   Clear
8:16 AM 30.2 °F 22.6 °F 14.0 °F 51% 30.38 in 10.0 mi West 8.1 mph - N/A   Clear
8:36 AM 30.2 °F 22.6 °F 14.0 °F 51% 30.38 in 10.0 mi West 8.1 mph 19.6 mph N/A   Clear
8:56 AM 32.0 °F 24.8 °F 14.0 °F 48% 30.38 in 10.0 mi West 8.1 mph - N/A   Clear
9:16 AM 32.0 °F 24.8 °F 14.0 °F 48% 30.38 in 10.0 mi WNW 8.1 mph - N/A   Clear
9:36 AM 32.0 °F 24.2 °F 14.0 °F 48% 30.38 in 10.0 mi SW 9.2 mph - N/A   Scattered Clouds
9:56 AM 33.8 °F 29.6 °F 15.8 °F 48% 30.37 in 10.0 mi West 4.6 mph - N/A   Scattered Clouds
10:16 AM 32.0 °F 26.4 °F 14.0 °F 48% 30.37 in 10.0 mi West 5.8 mph - N/A   Scattered Clouds
10:36 AM 33.8 °F 28.6 °F 15.8 °F 48% 30.37 in 10.0 mi SW 5.8 mph - N/A   Clear
10:56 AM 35.6 °F 29.9 °F 15.8 °F 44% 30.36 in 10.0 mi West 6.9 mph - N/A   Scattered Clouds
11:16 AM 33.8 °F 27.0 °F 14.0 °F 44% 30.36 in 10.0 mi WSW 8.1 mph 16.1 mph N/A   Scattered Clouds
11:36 AM 33.8 °F 29.6 °F 14.0 °F 44% 30.37 in 10.0 mi West 4.6 mph - N/A   Mostly Cloudy
11:56 AM 33.8 °F 27.0 °F 15.8 °F 48% 30.37 in 10.0 mi SW 8.1 mph 16.1 mph N/A   Overcast
12:16 PM 33.8 °F 27.7 °F 15.8 °F 48% 30.36 in 10.0 mi WSW 6.9 mph - N/A   Overcast
12:36 PM 33.8 °F 25.3 °F 15.8 °F 48% 30.36 in 10.0 mi WSW 11.5 mph 17.3 mph N/A   Overcast
12:56 PM 33.8 °F 25.3 °F 17.6 °F 52% 30.36 in 10.0 mi WSW 11.5 mph - N/A   Overcast
1:16 PM 33.8 °F 25.3 °F 17.6 °F 52% 30.35 in 10.0 mi WSW 11.5 mph 21.9 mph N/A   Mostly Cloudy
1:36 PM 35.6 °F 27.5 °F 17.6 °F 48% 30.34 in 10.0 mi WSW 11.5 mph 20.7 mph N/A   Mostly Cloudy
1:56 PM 35.6 °F 27.1 °F 17.6 °F 48% 30.34 in 10.0 mi SSW 12.7 mph 24.2 mph N/A   Overcast
2:16 PM 35.6 °F 29.2 °F 19.4 °F 52% 30.34 in 10.0 mi SSW 8.1 mph 21.9 mph N/A   Overcast
2:36 PM 35.6 °F 25.9 °F 17.6 °F 48% 30.34 in 10.0 mi SW 16.1 mph 26.5 mph N/A   Overcast
2:56 PM 35.6 °F 27.1 °F 17.6 °F 48% 30.33 in 10.0 mi SW 12.7 mph 23.0 mph N/A   Overcast
3:16 PM 35.6 °F 28.0 °F 19.4 °F 52% 30.32 in 10.0 mi SSW 10.4 mph - N/A   Overcast
3:36 PM 35.6 °F 26.2 °F 17.6 °F 48% 30.31 in 10.0 mi SSW 15.0 mph 25.3 mph N/A   Overcast
3:56 PM 37.4 °F 29.3 °F 17.6 °F 45% 30.31 in 10.0 mi WSW 12.7 mph 24.2 mph N/A   Mostly Cloudy
4:16 PM 32.0 °F 25.6 °F 17.6 °F 55% 30.31 in 7.0 mi West 6.9 mph 32.2 mph N/A   Mostly Cloudy
4:36 PM 32.0 °F 25.6 °F 21.2 °F 64% 30.31 in 2.5 mi West 6.9 mph 17.3 mph N/A Snow Light Snow
4:56 PM 33.8 °F 27.7 °F 17.6 °F 52% 30.31 in 10.0 mi SW 6.9 mph - N/A   Overcast
5:16 PM 35.6 °F 32.8 °F 17.6 °F 48% 30.30 in 10.0 mi West 3.5 mph - N/A   Overcast
5:36 PM 35.6 °F 30.7 °F 17.6 °F 48% 30.29 in 10.0 mi WSW 5.8 mph - N/A   Overcast
5:56 PM 33.8 °F 29.6 °F 17.6 °F 52% 30.29 in 10.0 mi NNW 4.6 mph - N/A   Overcast
6:16 PM 33.8 °F 29.6 °F 19.4 °F 56% 30.29 in 10.0 mi NW 4.6 mph - N/A   Overcast
6:36 PM 33.8 °F 29.6 °F 17.6 °F 52% 30.29 in 10.0 mi WNW 4.6 mph - N/A   Overcast
6:56 PM 32.0 °F 28.7 °F 17.6 °F 55% 30.29 in 10.0 mi WNW 3.5 mph - N/A   Mostly Cloudy
7:16 PM 32.0 °F 27.5 °F 15.8 °F 51% 30.30 in 10.0 mi NW 4.6 mph - N/A   Mostly Cloudy
7:36 PM 32.0 °F 23.6 °F 14.0 °F 48% 30.30 in 10.0 mi NNW 10.4 mph - N/A   Mostly Cloudy
7:56 PM 32.0 °F 25.6 °F 15.8 °F 51% 30.31 in 10.0 mi NNW 6.9 mph 19.6 mph N/A   Scattered Clouds
8:16 PM 30.2 °F 23.4 °F 15.8 °F 55% 30.31 in 10.0 mi NNW 6.9 mph - N/A   Clear
8:36 PM 30.2 °F 24.3 °F 17.6 °F 60% 30.31 in 10.0 mi NNW 5.8 mph - N/A   Scattered Clouds
8:56 PM 30.2 °F 24.3 °F 15.8 °F 55% 30.32 in 10.0 mi NNW 5.8 mph - N/A   Overcast
9:16 PM 30.2 °F 26.7 °F 14.0 °F 51% 30.32 in 10.0 mi NE 3.5 mph - N/A   Overcast
9:36 PM 30.2 °F 26.7 °F 14.0 °F 51% 30.33 in 10.0 mi North 3.5 mph - N/A   Overcast
9:56 PM 30.2 °F 23.4 °F 15.8 °F 55% 30.33 in 10.0 mi ENE 6.9 mph - N/A   Overcast
10:16 PM 28.4 °F 18.0 °F 17.6 °F 64% 30.33 in 10.0 mi NE 12.7 mph - N/A   Overcast
10:36 PM 28.4 °F 17.0 °F 17.6 °F 64% 30.33 in 10.0 mi NE 15.0 mph - N/A   Overcast
10:56 PM 28.4 °F 17.5 °F 17.6 °F 64% 30.33 in 10.0 mi NE 13.8 mph - N/A   Overcast
11:16 PM 28.4 °F 15.8 °F 17.6 °F 64% 30.32 in 10.0 mi NE 18.4 mph - N/A   Overcast
11:36 PM 26.6 °F 13.8 °F 19.4 °F 74% 30.32 in 10.0 mi NNE 17.3 mph 23.0 mph N/A   Mostly Cloudy
11:56 PM 26.6 °F 16.8 °F 19.4 °F 74% 30.32 in 10.0 mi NE 10.4 mph - N/A   Mostly Cloudy